"2017-06-01 06:20:00",1,3.579,3.544,184.4,8.06,1.52,4.756,4.13,4.07,180.8,9.78,3.2,5.5
"2017-06-01 06:30:00",2,3.947,3.906,173,8.3,3.187,4.56,4.345,4.3,171.1,8.25,3,5.3
"2017-06-01 06:40:00",3,3.609,3.539,167.3,11.25,1.716,4.56,3.94,3.901,167.4,8.04,3.1,5.4
"2017-06-01 06:50:00",4,3.412,3.32,156.5,13.34,2.206,4.462,3.925,3.787,157.6,15.17,2.5,4.8
"2017-06-01 07:00:00",5,2.339,2.234,143.6,17.1,0.932,3.383,3.03,2.948,144.3,13.34,1.8,3.7
"2017-06-01 07:10:00",6,2.535,2.431,154.1,16.4,1.226,3.187,3.075,2.953,154.1,16.1,2.2,4.2
"2017-06-01 07:20:00",7,2.996,2.909,164.4,13.76,1.52,3.971,3.515,3.421,162.5,13.26,2.9,4.5
"2017-06-01 07:30:00",8,2.829,2.773,173.6,11.42,1.324,4.364,3.66,3.597,174.3,10.67,2.5,4.8
"2017-06-01 07:40:00",9,2.805,2.719,179.2,14.11,1.422,4.462,3.785,3.716,177.8,10.92,3,4.5
"2017-06-01 07:50:00",10,3.118,3.079,182.6,9.13,1.52,4.952,3.88,3.831,179.9,9.1,2.9,5.2
"2017-06-01 08:00:00",11,2.422,2.353,178.5,13.65,0.932,3.873,3.125,3.083,179.7,9.35,2.2,4.2
"2017-06-01 08:10:00",12,2.966,2.899,178,12.19,1.618,3.971,3.385,3.294,176,13.3,2.2,4.6
"2017-06-01 08:20:00",13,2.746,2.674,176.9,13.07,1.226,4.069,3.89,3.848,174.8,8.37,2.6,5
"2017-06-01 08:30:00",14,2.751,2.626,157.9,17.21,1.52,3.579,3.335,3.231,168.5,14.34,2.5,4.3
"2017-06-01 08:40:00",15,2.653,2.518,170,18.22,1.618,3.873,3.14,3.053,161.4,13.5,2.4,4
"2017-06-01 08:50:00",16,3.04,2.957,174.8,13.38,1.226,4.56,3.615,3.545,173.5,11.25,2.9,4.6
"2017-06-01 09:00:00",17,2.986,2.947,181.6,9.3,1.716,4.462,4.185,4.12,173.6,10.06,3,5.4
"2017-06-01 09:10:00",18,3.462,3.41,173.6,9.89,1.52,5.442,4.655,4.609,177,8.03,3,6.1
"2017-06-01 09:20:00",19,3.359,3.309,171.4,9.87,1.814,5.148,4.63,4.57,170.8,9.18,3.5,5.7
"2017-06-01 09:30:00",20,2.55,2.492,164.9,12.15,1.422,3.677,3.755,3.722,169.5,7.622,2.2,5
"2017-06-01 09:40:00",21,2.868,2.807,173.6,11.86,1.618,4.56,3.76,3.685,171,11.43,2.9,5.2
"2017-06-01 09:50:00",22,2.77,2.694,175.6,13.44,1.52,4.364,3.845,3.812,177,7.552,2.9,4.7
"2017-06-01 10:00:00",23,3.329,3.269,173.3,10.9,1.324,4.364,4.04,4.006,170.5,7.475,3.4,5.1
"2017-06-01 10:10:00",24,3.466,3.44,175.4,7.045,1.618,4.658,4.09,4.04,175,9,3.1,4.8
"2017-06-01 10:20:00",25,2.638,2.548,169.9,14.95,1.422,4.069,3.45,3.373,170.9,12.08,2.3,4.3
"2017-06-01 10:30:00",26,2.491,2.453,165,9.91,1.422,3.481,3.255,3.202,162.2,10.29,2.5,4.3
"2017-06-01 10:40:00",27,3.241,3.153,164.2,13.3,2.01,3.971,3.865,3.769,156.8,12.74,2.9,5.2
"2017-06-01 10:50:00",28,3.614,3.497,179.4,14.55,1.716,4.266,3.945,3.79,171.7,16.07,1.1,5.2
"2017-06-01 11:00:00",29,3.187,3.109,167,12.69,1.618,4.756,4.36,4.3,164.2,9.52,3.5,5.6
"2017-06-01 11:10:00",30,3.27,3.232,170.6,8.76,2.01,4.56,4.345,4.306,166.7,7.633,3.7,5.3
"2017-06-01 11:20:00",31,3.589,3.529,180.1,10.49,1.814,4.952,4.555,4.5,177.3,8.91,3.6,5.3
"2017-06-01 11:30:00",32,3.672,3.606,171.6,10.86,1.716,5.442,4.205,4.114,171.5,11.9,2.5,6
"2017-06-01 11:40:00",33,3.113,3.034,180.7,12.96,1.716,3.873,3.59,3.277,176.5,23.93,1,4.7
"2017-06-01 11:50:00",34,3.256,3.223,183.1,8.07,2.304,4.168,3.595,3.453,181.9,16.11,1,5
"2017-06-01 12:00:00",35,3.633,3.582,183.8,9.57,2.697,4.168,3.415,2.823,185,33.72,1,5.3
"2017-06-01 12:10:00",36,3.265,3.181,177.7,12.99,2.206,4.462,3.685,3.476,175.7,19.29,0.6,5.1
"2017-06-01 12:20:00",37,3.54,3.48,166.7,10.52,2.599,4.462,4.355,4.266,165.6,11.58,3,5.1
"2017-06-01 12:30:00",38,4.011,3.936,162.4,11.02,2.304,4.952,4.805,4.708,161.2,11.5,3.1,5.9
"2017-06-01 12:40:00",39,4.094,4.017,158.1,11.08,3.579,4.756,4.715,4.581,157.4,13.67,2.9,5.7
"2017-06-01 12:50:00",40,3.726,3.636,165.1,12.64,2.697,4.56,4.39,4.345,165.9,8.16,3.2,5.3
"2017-06-01 13:00:00",41,2.089,1.981,163.4,18.38,1.128,3.187,2.585,2.251,162.2,29.11,0.6,3.9
"2017-06-01 13:10:00",42,3.697,3.577,162.2,14.56,2.402,4.854,4.105,3.901,160.5,18.07,0.6,5.7
"2017-06-01 13:20:00",43,3.545,3.456,166.4,12.82,2.01,4.658,4.185,4.059,166.8,14.08,3.1,5.8
"2017-06-01 13:30:00",44,3.388,3.352,171.8,8.39,1.52,4.266,4.04,3.976,174.1,10.21,3.1,4.9
"2017-06-01 13:40:00",45,3.692,3.639,177.1,9.69,2.795,4.462,4.345,4.277,172.5,10.1,3,5.4
"2017-06-01 13:50:00",46,3.913,3.872,180.6,8.22,3.187,4.854,4.335,4.268,183.8,10.03,2.9,5.6
"2017-06-01 14:00:00",47,3.78,3.733,187.4,9.04,2.991,4.56,4.445,4.402,187.2,7.972,3.2,5.7
"2017-06-01 14:10:00",48,3.368,3.306,185.1,11.06,2.108,3.873,3.77,3.727,180,8.7,2.3,4.5
"2017-06-01 14:20:00",49,3.927,3.875,189.5,9.33,1.422,4.952,4.585,4.469,184.5,12.91,3.5,6.4
"2017-06-01 14:30:00",50,4.3,4.259,193,7.865,3.677,4.952,5.02,4.981,191.7,7.161,3.2,6.3
"2017-06-01 14:40:00",51,3.795,3.759,195.3,7.881,1.716,5.05,4.235,4.212,193.1,5.925,2.9,5.9
"2017-06-01 14:50:00",52,4.574,4.552,193.6,5.647,3.481,5.442,5.035,4.985,196.3,8.1,3.2,6.2
"2017-06-01 15:00:00",53,5.016,4.97,193.7,7.775,3.677,5.933,5.42,5.374,191.9,7.469,3.5,6.7
"2017-06-01 15:10:00",54,5.325,5.285,193.9,6.983,2.108,6.619,5.95,5.908,196.5,6.806,4.7,7.9
"2017-06-01 15:20:00",55,5.58,5.538,197.5,7.016,3.775,6.521,6.395,6.323,197,8.57,4.9,7.4
"2017-06-01 15:30:00",56,4.78,4.742,199.7,7.264,2.304,7.109,5.65,5.6,197.6,7.653,4.9,6.4
"2017-06-01 15:40:00",57,4.962,4.887,197.8,9.98,2.697,6.815,5.92,5.856,196.9,8.4,4.7,7.5
"2017-06-01 15:50:00",58,5.182,5.147,197.8,6.746,2.599,6.619,5.57,5.521,196.2,7.626,4.5,6.9
"2017-06-01 16:00:00",59,4.643,4.611,194.3,6.719,2.108,6.423,5.505,5.453,191.6,7.852,3.8,7
"2017-06-01 16:10:00",60,4.413,4.377,196.7,7.251,1.716,6.815,5.25,5.216,198.2,6.556,4,6.4
"2017-06-01 16:20:00",61,5.168,5.069,198.4,11.2,2.501,6.619,5.935,5.888,197.9,7.23,3.6,7.7
"2017-06-01 16:30:00",62,5.099,5.067,191.8,6.448,2.501,6.619,6,5.94,188,8.08,4.7,7
"2017-06-01 16:40:00",63,5.923,5.856,188.1,8.6,2.893,8.19,6.38,6.365,188.8,3.958,4.9,9
"2017-06-01 16:50:00",64,5.879,5.817,182.6,8.28,2.991,7.992,7,6.951,185.4,6.808,5.6,9.1
"2017-06-01 17:00:00",65,5.423,5.35,188,9.35,2.304,7.894,6.65,6.588,188.1,7.811,5,9.1
"2017-06-01 17:10:00",66,5.369,5.288,196.5,9.93,2.795,7.992,6.91,6.689,191.9,14.49,2.2,9
"2017-06-01 17:20:00",67,5.433,5.381,197.2,7.855,2.795,8.38,7.46,7.404,195.2,7.043,4.4,8.8
"2017-06-01 17:30:00",68,7.183,7.118,195.6,7.705,4.854,8.78,7.365,7.207,196.5,11.86,6.3,8.4
"2017-06-01 17:40:00",69,6.59,6.516,200.5,8.55,3.677,9.66,8.18,8.1,198.6,7.721,5.7,12.7
"2017-06-01 17:50:00",70,6.158,6.1,191.9,7.904,2.795,8.58,7.54,7.484,190.3,6.995,6,8.5
"2017-06-01 18:00:00",71,5.472,5.431,194.8,6.997,2.893,8.48,7.24,7.108,191.2,10.92,5.2,9.1
"2017-06-01 18:10:00",72,6.134,6.107,195.8,5.34,2.795,8.78,7.115,7.055,190.4,7.448,5.7,9
"2017-06-01 18:20:00",73,5.477,5.418,191,8.4,2.795,8.58,7,6.917,189.7,8.83,5.5,8.7
"2017-06-01 18:30:00",74,5.879,5.825,192.7,7.738,2.501,8.97,7.695,7.613,194.9,8.36,6,9.4
"2017-06-01 18:40:00",75,5.055,5.011,199.8,7.529,3.089,7.305,7.11,7.064,198.4,6.511,5.5,8.6
"2017-06-01 18:50:00",76,5.938,5.893,203,7.022,2.795,7.502,7.72,7.667,202.8,6.729,6,9.2
"2017-06-01 19:00:00",77,5.933,5.887,209.5,7.111,2.893,8.48,7.36,7.303,205.7,7.158,6,8.8
"2017-06-01 19:10:00",78,5.795,5.725,208.9,8.93,2.795,8.87,7.71,7.641,209.1,7.679,5.8,9.9
"2017-06-01 19:20:00",79,6.379,6.332,216.3,6.956,3.677,8.29,7.21,7.185,212.1,4.754,4.8,8.8
"2017-06-01 19:30:00",80,6.143,6.077,215.5,8.43,2.893,8.29,7.46,7.408,214.2,6.78,5.7,10
"2017-06-01 19:40:00",81,6.202,6.135,218,8.43,2.991,9.66,7.755,7.677,214,8.13,5.3,9.7
"2017-06-01 19:50:00",82,7.085,7.031,217.3,7.083,3.579,8.78,8.12,7.992,212.3,9.97,6.1,10.6
"2017-06-01 20:00:00",83,5.987,5.933,213.7,7.671,3.383,8.29,7.435,7.364,210.2,7.905,6,8.9
"2017-06-01 20:10:00",84,6.59,6.531,213.2,7.664,3.187,8.29,7.515,7.426,211.5,8.81,5.4,8.6
"2017-06-01 20:20:00",85,6.055,6,210.3,7.76,3.285,8.68,7.755,7.573,210.4,12.42,5.6,10
"2017-06-01 20:30:00",86,6.3,6.245,205.7,7.608,3.285,9.95,7.685,7.594,204.4,8.8,6.4,9.4
"2017-06-01 20:40:00",87,6.354,6.304,200.5,7.228,2.402,9.07,6.825,6.748,201.4,8.61,5,8.4
"2017-06-01 20:50:00",88,5.482,5.421,201,8.49,2.402,7.6,6.355,6.281,197.5,8.72,5.2,7.6
"2017-06-01 21:00:00",89,4.168,4.137,198.5,6.949,2.206,6.619,5.51,5.463,197.5,7.464,3.4,7.3
"2017-06-01 21:10:00",90,4.084,4.031,193.8,9.22,2.206,5.54,4.72,4.66,194.7,9.16,2.9,7
"2017-06-01 21:20:00",91,4.035,3.989,201.3,8.7,2.108,6.325,4.795,4.718,200.7,10.26,3.8,6.3
"2017-06-01 21:30:00",92,4.02,3.99,209,7.059,2.01,5.54,4.61,4.526,203.4,10.93,2.4,6.3
"2017-06-01 21:40:00",93,4.001,3.924,207.8,11.24,2.599,5.246,4.24,4.062,211.7,16.58,2.9,6.1
"2017-06-01 21:50:00",94,3.417,3.333,201.5,12.72,1.716,4.56,3.78,3.713,195.2,10.78,3,5.6
"2017-06-01 22:00:00",95,4.28,4.245,204.7,7.314,1.912,5.638,4.89,4.822,204.3,9.57,3.5,5.8
"2017-06-01 22:10:00",96,5.163,5.113,211.3,7.951,2.795,7.305,6.17,6.119,206.6,7.374,4.5,8.4
"2017-06-01 22:20:00",97,5.447,5.408,209.8,6.911,3.089,8.19,6.45,6.409,207.2,6.436,3.9,8.4
"2017-06-01 22:30:00",98,5.585,5.547,204.9,6.656,3.187,7.502,6.49,6.416,207.3,8.65,5,8
"2017-06-01 22:40:00",99,5.07,5.031,206.9,7.084,2.304,7.894,6.865,6.762,203.1,9.92,4.9,7.7
"2017-06-01 22:50:00",100,5.575,5.54,202,6.357,2.795,7.992,6.655,6.561,199.3,9.63,4.9,8.5
"2017-06-01 23:00:00",101,4.869,4.823,197.3,7.809,2.304,6.913,6.305,6.192,197.7,10.83,4.5,8
"2017-06-01 23:10:00",102,5.599,5.508,195.6,10.35,2.795,7.894,6.345,6.265,195.1,9.07,4.7,8.5
"2017-06-01 23:20:00",103,5.104,5.054,192,8.01,2.402,8.09,6.015,5.952,190.2,8.28,4.2,7.9
"2017-06-01 23:30:00",104,5.555,5.503,189.2,7.808,2.697,7.207,6.28,6.199,187.5,9.2,4.6,7.7
"2017-06-01 23:40:00",105,5.133,5.074,184.9,8.73,2.206,7.404,6.15,6.102,186.3,7.154,4.7,7.2
"2017-06-01 23:50:00",106,4.746,4.691,182.8,8.76,2.108,7.894,6.07,5.986,182.3,9.51,5,7.8
"2017-06-02 00:00:00",107,5.683,5.585,181.5,10.62,2.893,7.992,6.755,6.581,185.4,13,5.2,9.5
"2017-06-02 00:10:00",108,5.31,5.245,182.9,8.97,3.089,7.502,6.135,6.059,179.8,9.01,4.8,7.7
"2017-06-02 00:20:00",109,5.05,4.833,165.3,16.78,2.304,7.992,5.7,5.507,167.2,14.89,3.9,9.2
"2017-06-02 00:30:00",110,4.084,4.005,155.8,11.31,2.304,6.031,4.465,4.34,153.1,13.55,0.7,6
"2017-06-02 00:40:00",111,4.114,4.015,159.7,12.51,2.304,5.344,4.695,4.546,161.8,14.43,3.9,5.5
"2017-06-02 00:50:00",112,3.986,3.92,166.3,10.44,2.304,5.442,4.39,4.316,165.2,10.52,3.3,5.2
"2017-06-02 01:00:00",113,3.908,3.804,159.6,13.18,2.108,4.658,4.575,4.51,150.5,9.69,3.6,6
"2017-06-02 01:10:00",114,3.025,2.848,149.6,19.6,1.226,4.069,3.38,3.246,142.8,16.11,1.6,4.6
"2017-06-02 01:20:00",115,3.064,2.932,147.8,16.81,1.422,4.266,3.535,3.436,147.5,13.56,2.9,4.4
"2017-06-02 01:30:00",116,3.045,2.98,136.5,11.79,2.108,3.971,3.34,3.291,137.4,9.8,2,4.5
"2017-06-02 01:40:00",117,2.839,2.733,129,15.66,1.912,3.579,3.195,3.104,135.5,13.67,2.2,4.7
"2017-06-02 01:50:00",118,2.785,2.604,143.7,20.65,2.206,4.168,3.29,3.128,153.3,18,2,4.5
"2017-06-02 02:00:00",119,3.226,3.115,168.2,15.06,1.912,4.756,3.75,3.68,164.7,11.05,2.9,4.7
"2017-06-02 02:10:00",120,3.442,3.395,165.3,9.41,2.501,4.266,3.89,3.75,162.5,15.36,2.5,5.1
"2017-06-02 02:20:00",121,3.545,3.517,172.3,7.192,2.108,4.462,3.93,3.896,170.9,7.58,3,4.7
"2017-06-02 02:30:00",122,3.77,3.691,170.3,11.76,2.304,4.952,4.22,4.171,170.1,8.77,2.6,5.7
"2017-06-02 02:40:00",123,3.697,3.572,161,14.89,1.716,4.56,3.955,3.877,158.7,11.34,2.4,4.9
"2017-06-02 02:50:00",124,3.746,3.648,151.1,13.12,2.501,4.854,4.415,4.347,156.4,10.08,3.5,5.1
"2017-06-02 03:00:00",125,3.569,3.512,154.8,10.3,2.402,4.658,3.83,3.747,150,11.95,2.9,5
"2017-06-02 03:10:00",126,3.192,3.141,163.2,10.19,1.716,4.168,3.7,3.604,160.5,13.03,2.5,4.6
"2017-06-02 03:20:00",127,3.094,3.015,169.5,12.89,1.422,4.168,3.76,3.665,163.5,12.87,2.7,4.7
"2017-06-02 03:30:00",128,3.354,3.247,180,14.45,2.108,5.54,4.205,4.146,178.2,9.57,3.2,6.3
"2017-06-02 03:40:00",129,3.829,3.773,176.1,9.79,1.814,5.638,5.11,5.047,175.7,9.01,3.4,6.2
"2017-06-02 03:50:00",130,3.055,2.976,190.8,13.03,1.226,4.658,3.77,3.677,187.1,12.75,2.6,5
"2017-06-02 04:00:00",131,2.755,2.688,179.8,12.67,1.814,4.168,3.645,3.573,185.8,11.42,2.8,4.9
"2017-06-02 04:10:00",132,2.246,2.162,182.9,15.62,1.52,3.383,2.94,2.786,183.2,18.55,1.6,4.5
"2017-06-02 04:20:00",133,2.045,1.953,180.7,17.13,1.03,3.089,2.66,2.544,186.4,16.92,1.7,3.6
"2017-06-02 04:30:00",134,2.089,2.004,183.5,16.32,1.03,3.089,2.545,2.479,186.5,13,1.6,3.4
"2017-06-02 04:40:00",135,2.476,2.425,192.7,11.61,0.735,3.775,2.88,2.818,189.3,11.91,1.9,4.3
"2017-06-02 04:50:00",136,3.305,3.234,194.1,11.82,1.52,5.54,4.275,4.215,187.7,9.61,3.4,5.8
"2017-06-02 05:00:00",137,3.932,3.874,188.4,9.81,2.697,5.344,4.365,4.233,189.2,14.07,3.5,5.7
"2017-06-02 05:10:00",138,3.775,3.713,191.9,10.38,1.912,4.854,4.65,4.589,192.5,9.28,3.6,5.7
"2017-06-02 05:20:00",139,3.839,3.784,180.6,9.72,1.814,5.05,4.385,4.311,174.9,10.52,3.1,5.8
"2017-06-02 05:30:00",140,3.898,3.844,163.2,9.51,1.814,5.05,4.65,4.595,161.4,8.8,2.9,5.6
"2017-06-02 05:40:00",141,3.873,3.833,159.2,8.3,2.304,4.854,4.425,4.356,163.3,10.13,3.4,5.8
"2017-06-02 05:50:00",142,3.898,3.824,156.9,11.16,2.304,5.148,4.19,4.144,153.4,8.47,3.2,5.6
"2017-06-02 06:00:00",143,3.663,3.536,157.1,15.04,2.501,4.462,4.1,4.067,151.9,7.217,3.3,4.8
"2017-06-02 06:10:00",144,3.663,3.624,161.9,8.31,2.599,4.364,4.365,4.258,164.4,12.68,3.2,5.4
"2017-06-02 06:20:00",145,3.687,3.634,176.8,9.73,1.814,5.344,4.455,4.407,175.5,8.4,3.6,5.7
"2017-06-02 06:30:00",146,2.991,2.968,184.3,7.151,1.52,4.854,4.135,4.087,186.6,8.76,3.3,5.2
"2017-06-02 06:40:00",147,3.56,3.479,177.6,12.22,2.108,4.854,4.125,4.095,180.3,6.876,3.3,4.8
"2017-06-02 06:50:00",148,3.265,3.224,177,9.1,1.716,4.364,3.755,3.697,178.4,10.07,2.6,4.9
"2017-06-02 07:00:00",149,3.77,3.719,187.3,9.41,2.893,4.658,4.165,4.117,187,8.66,3.1,5.1
"2017-06-02 07:10:00",150,3.442,3.397,186.8,9.3,1.52,4.658,4.07,4.005,184.7,10.27,3.2,5.1
"2017-06-02 07:20:00",151,3.609,3.543,175.4,10.9,1.912,4.658,4.11,4.034,177.7,11.04,3.3,5
"2017-06-02 07:30:00",152,4.045,3.949,180.2,12.45,2.402,5.05,4.82,4.767,178.9,8.52,3.9,5.8
"2017-06-02 07:40:00",153,4.001,3.943,183.4,9.76,1.912,5.344,4.56,4.531,182.5,6.506,3.4,5.4
"2017-06-02 07:50:00",154,3.525,3.492,183.1,7.855,1.716,5.246,4.47,4.426,182.3,8.07,3.4,5.1
"2017-06-02 08:00:00",155,4.182,4.122,187.6,9.74,1.618,6.031,5.185,5.115,189.4,9.43,2.6,6.8
"2017-06-02 08:10:00",156,4.045,4.003,189.6,8.25,2.304,5.737,4.93,4.886,188.3,7.644,3.8,6.3
"2017-06-02 08:20:00",157,4.32,4.271,190.3,8.61,1.912,5.638,4.785,4.711,186.1,10.08,3.9,5.9
"2017-06-02 08:30:00",158,4.153,4.071,190.3,11.39,2.108,5.246,4.675,4.627,189.3,8.21,3.7,5.7
"2017-06-02 08:40:00",159,4.123,4.084,197.3,7.953,2.402,5.442,4.845,4.764,199.4,10.5,3.1,6.1
"2017-06-02 08:50:00",160,4.207,4.174,186.6,7.194,2.599,5.442,4.705,4.559,181.1,14.26,3,5.9
"2017-06-02 09:00:00",161,3.957,3.771,144.6,17.56,2.795,5.05,4.415,4.284,147.9,13.95,2.9,5.7
"2017-06-02 09:10:00",162,3.422,3.365,145.7,10.5,2.501,4.168,3.685,3.658,141.9,6.896,2.2,4.2
"2017-06-02 09:20:00",163,3.363,3.283,133.6,12.55,1.912,4.364,3.855,3.761,138,12.64,2.8,5
"2017-06-02 09:30:00",164,2.711,2.664,134.6,10.76,2.01,3.285,2.865,2.562,138.8,26.36,1.9,3.8
"2017-06-02 09:40:00",165,2.559,2.429,144.9,18.31,1.618,3.285,3.07,2.931,150.9,17.24,2.3,3.8
"2017-06-02 09:50:00",166,3.006,2.909,154.9,14.53,2.108,3.873,3.535,3.474,155.4,10.68,1.6,4.2
"2017-06-02 10:00:00",167,2.863,2.796,160.7,12.46,1.226,4.266,3.25,3.146,157.3,14.49,2.4,4.2
"2017-06-02 10:10:00",168,3.104,3.007,158.7,14.3,2.01,3.971,3.475,3.399,152.5,11.98,2.4,4.3
"2017-06-02 10:20:00",169,3.01,2.919,143.7,14.1,2.01,3.481,3.565,3.425,143.4,16.06,2.8,4.5
"2017-06-02 10:30:00",170,2.167,2.035,138.6,20.03,1.52,3.187,2.945,2.775,129.5,19.47,0.8,3.9
"2017-06-02 10:40:00",171,1.647,1.608,91.4,12.53,0.441,2.304,2.38,2.316,85.7,13.33,0.8,3.4
"2017-06-02 10:50:00",172,1.221,1.129,105.4,22.26,0.637,1.716,1.725,1.503,113,29.05,0.6,3.6
"2017-06-02 11:00:00",173,1.079,0.993,170.8,22.8,0.343,2.01,1.81,1.579,164.2,28.96,0.7,2.9
"2017-06-02 11:10:00",174,2.216,2.142,186.1,14.86,1.03,4.462,2.81,2.659,185.9,18.79,1.5,5
"2017-06-02 11:20:00",175,3.437,3.398,179.8,8.64,1.716,4.854,4.285,4.208,172.5,10.84,3.8,5.2
"2017-06-02 11:30:00",176,3.476,3.419,161.4,10.42,1.912,4.658,4.245,4.144,155.6,12.48,3.3,5.1
"2017-06-02 11:40:00",177,4.246,4.1,161.3,15.05,2.206,5.933,4.765,4.642,162.2,13.04,3,6.8
"2017-06-02 11:50:00",178,3.564,3.442,147.5,15.03,2.697,4.364,3.925,3.88,142.5,8.63,2.2,5.3
"2017-06-02 12:00:00",179,2.456,2.36,141.4,16.06,1.422,3.187,3.26,3.113,143.5,17.18,2,5.1
"2017-06-02 12:10:00",180,2.079,1.975,137.1,18.14,1.422,3.089,2.725,2.588,138,18.19,1.7,4
"2017-06-02 12:20:00",181,1.711,1.602,147.7,20.43,1.226,2.304,2.205,1.984,141.1,25.67,0.5,4.4
"2017-06-02 12:30:00",182,1.721,1.626,152.5,18.99,0.539,2.402,2.34,2.074,163.2,27.32,1.5,3.1
"2017-06-02 12:40:00",183,1.79,1.726,148.1,15.22,0.834,2.501,2.495,2.392,146.7,16.48,1.6,3.5
"2017-06-02 12:50:00",184,1.554,1.509,142.5,13.79,0.539,2.01,2.065,2.02,143.1,11.95,1.3,2.9
"2017-06-02 13:00:00",185,1.103,1,109.5,24.81,0.245,2.206,1.84,1.701,107.6,22.25,0.8,4.2
"2017-06-02 13:10:00",186,1.829,1.789,76.12,11.88,0.932,2.795,2.55,2.37,83.1,21.53,0.5,4.3
"2017-06-02 13:20:00",187,1.441,1.371,70.5,17.89,0.834,2.304,1.75,1.505,79.22,30.32,0.7,3.2
"2017-06-02 13:30:00",188,1.01,0.992,62.67,10.67,0.245,2.01,1.295,0.869,72.77,46.43,0.3,3.2
"2017-06-02 13:40:00",189,1.451,1.429,75.85,10.08,0.637,2.991,1.815,1.616,80.5,26.14,0,4
"2017-06-02 13:50:00",190,1.035,0.979,66.83,18.69,0.343,1.716,1.47,1.027,77.72,44.45,0.4,3.7
"2017-06-02 14:00:00",191,0.63,0.581,87.2,22.11,0,1.52,1.09,0.893,96.3,32.67,0,2.6
"2017-06-02 14:10:00",192,1.52,1.499,78.45,9.6,0.834,2.697,2.045,1.894,84.9,22.04,1,3.7
"2017-06-02 14:20:00",193,1.25,1.232,82,9.77,0.637,1.912,1.8,1.599,79.72,27.1,0.8,3.5
"2017-06-02 14:30:00",194,0.99,0.964,74.32,13.19,0.441,1.716,1.505,1.334,85.3,26.57,0,3.1
"2017-06-02 14:40:00",195,1.005,0.978,48.58,13.26,0.343,1.716,1.165,0.929,58.91,36.48,0.5,3.3
"2017-06-02 14:50:00",196,1.084,1.049,48.94,14.41,0.441,2.01,1.765,1.607,59.93,23.61,0,4.4
"2017-06-02 15:00:00",197,2.304,2.256,69.33,11.75,1.422,3.481,2.87,2.812,67.12,11.51,1.5,4.1
"2017-06-02 15:10:00",198,2.412,2.382,64.55,9.11,1.422,3.481,2.885,2.82,65.76,12.12,1.1,5.5
"2017-06-02 15:20:00",199,1.834,1.807,59.6,9.79,0.637,2.893,2.06,1.928,60.47,20.5,0.4,3.9
"2017-06-02 15:30:00",200,1.932,1.905,64.43,9.5,1.226,2.795,2.595,2.534,61.52,12.44,0.7,4
"2017-06-02 15:40:00",201,2.064,2.042,55.98,8.33,1.422,3.089,2.435,2.041,54.8,32.6,0.6,4.8
"2017-06-02 15:50:00",202,2.015,1.987,52.89,9.51,1.422,2.991,2.425,2.171,51.9,25.57,0,4.3
"2017-06-02 16:00:00",203,2.192,2.146,46.49,11.69,1.422,3.187,2.86,2.816,51.35,10.08,1.2,4.7
"2017-06-02 16:10:00",204,1.79,1.73,36.64,14.77,1.324,2.991,2.09,1.892,34.4,24.31,0,3.7
"2017-06-02 16:20:00",205,1.696,1.631,11.28,15.93,1.03,2.501,2.01,1.803,23.77,26.01,0.4,3.6
"2017-06-02 16:30:00",206,1.589,1.468,11.86,22.28,1.03,2.304,1.915,1.661,15.73,29.49,0.4,3.3
"2017-06-02 16:40:00",207,1.54,1.463,13.74,18.09,1.03,2.206,1.785,1.501,11.16,32.3,0.4,2.5
"2017-06-02 16:50:00",208,1.549,1.488,22.38,16.16,1.128,2.304,1.96,1.722,32.08,28.2,0.7,3.8
"2017-06-02 17:00:00",209,2.025,1.924,26.11,18.06,1.52,2.991,2.535,2.312,30.81,24.01,0.8,3.7
"2017-06-02 17:10:00",210,2.138,2.076,34.96,13.78,1.324,3.089,2.5,2.444,33.78,12.14,1.7,3.3
"2017-06-02 17:20:00",211,2.481,2.366,34.14,17.4,1.716,3.187,3.165,3.103,36.93,11.34,2,4.9
"2017-06-02 17:30:00",212,2.128,2.036,27.57,16.87,1.324,2.991,2.545,2.325,25.59,23.79,0.5,4.1
"2017-06-02 17:40:00",213,2.285,2.21,34.24,14.64,1.226,3.089,2.95,2.835,37.14,16.01,1.6,4.2
"2017-06-02 17:50:00",214,2.461,2.408,43.48,11.89,1.226,3.481,2.915,2.871,38.92,9.96,1,4.4
"2017-06-02 18:00:00",215,2.353,2.285,36.35,13.79,1.716,3.187,3.215,3.149,34.75,11.62,2.1,4.1
"2017-06-02 18:10:00",216,2.623,2.581,35.55,10.23,1.814,3.383,3.185,3.134,32.22,10.27,2,4.4
"2017-06-02 18:20:00",217,2.29,2.205,27.91,15.57,1.03,3.579,2.84,2.785,28.32,11.24,1.8,4.2
"2017-06-02 18:30:00",218,2.221,2.107,35.31,18.37,1.324,4.168,2.93,2.814,35.49,16.14,1.9,4.2
"2017-06-02 18:40:00",219,2.809,2.775,48,9.02,2.206,3.873,3.285,3.225,49.03,10.96,1.6,5.3
"2017-06-02 18:50:00",220,3.118,3.065,31.16,10.54,2.402,3.971,3.665,3.623,31.26,8.71,2.7,5
"2017-06-02 19:00:00",221,2.608,2.545,31.58,12.65,1.128,3.775,3.46,3.386,26.19,11.83,2.8,4.7
"2017-06-02 19:10:00",222,3.697,3.656,38.88,8.49,1.716,5.05,4.215,4.186,36.92,6.699,3.2,5.5
"2017-06-02 19:20:00",223,3.805,3.771,32.74,7.592,2.697,5.05,4.315,4.274,30.31,7.939,3.5,5.5
"2017-06-02 19:30:00",224,3.52,3.468,32.32,9.85,2.795,4.56,4.115,4.089,30.52,6.38,2.3,5.8
"2017-06-02 19:40:00",225,3.295,3.237,29.77,10.73,1.814,4.56,3.605,3.576,24.42,7.214,2.4,4.5
"2017-06-02 19:50:00",226,2.515,2.475,18.27,10.24,1.52,3.775,3.445,3.402,17.47,9.01,2.3,4.5
"2017-06-02 20:00:00",227,2.829,2.77,17.29,11.74,1.618,4.462,3.675,3.618,11.69,10.04,2.7,4.6
"2017-06-02 20:10:00",228,2.824,2.77,14.86,11.23,1.618,4.56,3.91,3.868,16.81,8.44,2.9,5.5
"2017-06-02 20:20:00",229,3.967,3.925,15.96,8.31,3.089,4.854,4.595,4.565,14.77,6.508,3.1,6
"2017-06-02 20:30:00",230,4.158,4.105,18.53,9.16,3.579,4.952,4.615,4.553,18.68,9.37,3.2,5.7
"2017-06-02 20:40:00",231,3.888,3.831,19.03,9.84,2.304,5.344,4.42,4.369,17.51,8.71,3.6,5.9
"2017-06-02 20:50:00",232,4.035,4.013,24.46,6.04,2.991,4.854,4.63,4.596,18.78,6.909,3.6,5.7
"2017-06-02 21:00:00",233,3.957,3.92,23.31,7.789,2.991,4.854,4.585,4.536,19.78,8.4,3.6,6
"2017-06-02 21:10:00",234,4.486,4.459,24.92,6.357,3.285,5.344,4.77,4.718,20.76,8.45,3.3,6
"2017-06-02 21:20:00",235,4.501,4.457,25.65,7.982,3.187,5.344,5.07,5.046,23.85,5.54,2.9,6.6
"2017-06-02 21:30:00",236,5.129,5.098,22.75,6.208,4.168,6.227,5.88,5.833,22.57,7.219,4.9,7.4
"2017-06-02 21:40:00",237,5.496,5.445,21.99,7.799,4.462,6.129,6.4,6.351,21.26,7.094,5.1,7.4
"2017-06-02 21:50:00",238,5.285,5.245,21.23,7.095,4.168,5.933,6.12,6.074,18.38,7.045,4.7,7.5
"2017-06-02 22:00:00",239,4.829,4.786,25.72,7.69,2.206,6.325,5.91,5.855,25.49,7.845,4.4,8.1
"2017-06-02 22:10:00",240,4.844,4.732,21.86,12.35,2.402,7.305,5.47,4.963,18.19,24.67,1,7.2
"2017-06-02 22:20:00",241,5.991,5.927,21.18,8.43,5.05,7.698,6.66,6.538,19.53,10.94,2.8,8.1
"2017-06-02 22:30:00",242,6.188,6.096,16.6,9.83,3.971,7.796,6.005,5.482,18.43,23.9,2.1,8.3
"2017-06-02 22:40:00",243,6.197,6.118,14.83,9.15,4.266,7.305,6.11,5.202,19.09,31.23,2.9,9.3
"2017-06-02 22:50:00",244,6.349,6.305,16.56,6.798,5.05,7.698,6.73,6.474,17.11,15.79,1.5,9.1
"2017-06-02 23:00:00",245,6.222,6.153,15.18,8.53,2.795,8.09,7.02,6.576,14,20.37,3.4,9
"2017-06-02 23:10:00",246,6.987,6.892,16.53,9.45,3.187,9.46,7.885,7.801,14.23,8.37,5.8,10.4
"2017-06-02 23:20:00",247,6.487,6.426,22.28,7.86,3.187,8.68,7.38,7.27,17.82,9.87,5.1,9.9
"2017-06-02 23:30:00",248,5.555,5.506,23.05,7.578,2.501,7.992,7.19,7.123,21.54,7.822,5.3,9
"2017-06-02 23:40:00",249,6.742,6.66,23.06,8.89,5.442,8.58,7.33,7.208,25.38,10.47,4.4,9.4
"2017-06-02 23:50:00",250,6.246,6.19,19.64,7.667,4.756,7.6,6.075,5.436,16.66,26.28,1.6,9.3
"2017-06-03 00:00:00",251,5.854,5.815,23.05,6.639,2.697,7.305,6.11,5.835,20.77,17.2,1.3,9.3
"2017-06-03 00:10:00",252,5.653,5.554,20.56,10.71,2.697,7.404,5.895,5.612,20.1,17.76,1.7,8
"2017-06-03 00:20:00",253,6.266,6.184,15.63,9.28,2.304,8.58,6.835,6.536,16.44,16.95,2.7,9.3
"2017-06-03 00:30:00",254,6.854,6.816,14.29,6.047,2.599,8.78,7.285,6.88,10.89,19.11,3.7,9.5
"2017-06-03 00:40:00",255,7.271,7.198,15.73,8.11,3.775,10.05,8.4,8.36,12.15,5.696,5.2,10.6
"2017-06-03 00:50:00",256,6.992,6.913,10.54,8.57,3.481,9.66,8.29,8.14,11.55,10.97,5.7,11.1
"2017-06-03 01:00:00",257,7.183,7.102,13.03,8.61,3.383,10.15,8.98,8.9,13.28,7.49,6.7,11.3
"2017-06-03 01:10:00",258,7.717,7.638,12.17,8.22,4.56,9.46,7.795,7.455,9.69,16.91,1.5,10.3
"2017-06-03 01:20:00",259,7.825,7.755,11.91,7.687,3.971,10.25,8.11,7.898,14.97,13.09,1.3,11
"2017-06-03 01:30:00",260,8.6,8.55,7.554,6.178,5.638,11.23,9.07,8.83,8.15,13.08,3,11.1
"2017-06-03 01:40:00",261,8.61,8.55,8.94,6.785,3.971,10.84,9.3,9.16,6.345,9.61,7.8,10.5